1507449600.43,8460,11.38,72950.0,-0.05,-1.63,-1.51,0,*6E
1507449601.63,8461,11.38,72940.8,-0.05,-1.63,-1.51,0,*6F
1507449602.83,8462,11.38,72940.8,-0.05,-1.63,-1.51,0,*6C
1507449604.07,8463,11.38,72940.3,-0.05,-1.87,-1.67,0,*62
1507449605.3,8464,11.38,72942.0,-0.05,-1.87,-1.75,0,*66
1507449606.53,8465,11.38,72950.5,-0.05,-1.99,-1.79,0,*64
1507449607.76,8466,11.38,72946.5,-0.05,-1.91,-1.79,0,*6F
1507449608.96,8467,11.38,72942.0,-0.03,-1.91,-1.75,0,*64
1507449610.14,8468,11.38,72942.5,-0.03,-1.75,-1.63,0,*66
1507449611.31,8469,11.38,72940.3,-0.03,-2.27,-2.23,0,*64
1507449612.51,8470,11.38,72954.3,-0.03,-2.27,-2.11,0,*6D
1507449613.74,8471,11.38,72952.0,-0.01,-2.19,-2.07,0,*64
1507449614.98,8472,11.38,72944.8,-0.01,-1.87,-1.71,0,*61
1507449616.18,8473,11.38,72946.0,-0.03,-1.87,-1.67,0,*65
1507449617.42,8474,11.38,72940.0,-0.01,-1.99,-1.75,0,*6C
1507449618.68,8475,11.38,72938.0,-0.01,-2.11,-1.87,0,*63
1507449619.91,8476,11.38,72938.8,-0.01,-2.19,-1.99,0,*67
1507449621.13,8477,11.38,72940.8,-0.01,-2.23,-2.11,0,*6C
1507449622.36,8478,11.38,72946.0,-0.01,-2.19,-2.07,0,*6D
1507449623.59,8479,11.38,72942.3,-0.01,-2.23,-2.07,0,*65
1507449624.82,8480,11.38,72940.8,-0.01,-2.19,-1.99,0,*6E
1507449626.08,8481,11.38,72944.0,-0.01,-2.11,-2.03,0,*67
1507449627.34,8482,11.38,72944.3,-0.01,-2.07,-1.87,0,*6C
1507449628.57,8483,11.38,72950.3,-0.01,-1.87,-1.63,0,*6C
1507449629.79,8484,11.38,72948.5,-0.01,-2.19,-2.11,0,*69
1507449631.05,8485,11.38,72948.5,-0.01,-2.11,-1.95,0,*6F
1507449632.24,8486,11.38,72948.3,0.01,-1.83,-1.63,0,*40
1507449633.41,8487,11.38,72950.0,0.01,-1.75,-1.59,0,*41
1507449634.58,8488,11.38,72948.8,0.01,-1.67,-1.51,0,*45
1507449635.77,8489,11.38,72946.8,0.05,-1.55,-1.43,0,*42
1507449636.94,8490,11.38,72954.0,0.05,-1.51,-1.33,0,*49
1507449638.11,8491,11.38,72950.3,0.05,-1.67,-1.51,0,*49
1507449639.33,8492,11.38,72958.8,0.07,-1.47,-1.25,0,*49
1507449640.58,8493,11.38,72960.0,0.07,-1.47,-1.35,0,*49
1507449641.78,8494,11.38,72960.0,0.09,-2.15,-1.91,0,*4A
1507449642.97,8495,11.38,72960.3,0.07,-1.79,-1.55,0,*44
1507449644.17,8496,11.38,72958.5,0.09,-1.55,-1.39,0,*4D
1507449645.36,8497,11.38,72948.0,0.09,-1.51,-1.35,0,*44
1507449646.53,8498,11.38,72940.3,0.09,-1.79,-1.63,0,*42
1507449647.75,8499,11.38,72940.0,0.09,-2.11,-1.91,0,*43
1507449648.95,8500,11.38,72938.8,0.09,-1.91,-1.67,0,*40
1507449650.18,8501,11.38,72936.0,0.11,-1.63,-1.35,0,*72
1507449651.4,8502,11.38,72938.0,0.11,-1.33,-1.13,0,*70
1507449652.62,8503,11.38,72942.8,0.11,-1.43,-1.33,0,*74
1507449653.83,8504,11.38,72946.8,0.11,-1.71,-1.51,0,*76
1507449655.05,8505,11.38,72950.8,0.13,-1.59,-1.47,0,*78
1507449656.28,8506,11.38,72948.0,0.11,-1.83,-1.71,0,*7B
1507449657.49,8507,11.38,72944.0,0.15,-1.95,-1.79,0,*71
1507449658.69,8508,11.38,72946.3,0.15,-1.91,-1.79,0,*7A
1507449659.93,8509,11.38,72944.5,0.13,-1.95,-1.71,0,*71
1507449661.17,8510,11.38,72942.8,0.13,-1.99,-1.75,0,*71
1507449662.39,8511,11.38,72946.3,0.13,-1.95,-1.75,0,*7C
1507449663.6,8512,11.38,72950.8,0.13,-1.75,-1.51,0,*77
1507449664.85,8513,11.38,72954.0,0.13,-2.11,-1.95,0,*7F
1507449666.11,8514,11.38,72952.3,0.13,-1.95,-1.83,0,*70
1507449667.34,8515,11.38,72952.0,0.13,-1.43,-1.33,0,*71
1507449668.57,8516,11.38,72954.0,0.17,-1.39,-1.21,0,*78
1507449669.8,8517,11.38,72954.3,0.17,-1.43,-1.29,0,*7C
1507449671.05,8518,11.38,72954.3,0.17,-1.43,-1.39,0,*72
1507449672.26,8519,11.38,72956.0,0.15,-2.03,-1.79,0,*72
1507449673.49,8520,11.38,72956.0,0.17,-1.55,-1.39,0,*7E
1507449674.68,8521,11.38,72960.5,0.17,-1.67,-1.59,0,*78
1507449675.91,8522,11.38,72962.5,0.17,-1.43,-1.21,0,*72
1507449677.14,8523,11.38,72956.5,0.17,-1.43,-1.33,0,*70
1507449678.34,8524,11.38,72958.5,0.19,-1.63,-1.43,0,*7C
1507449679.57,8525,11.38,72962.5,0.21,-1.63,-1.39,0,*7B
1507449680.79,8526,11.38,72960.8,0.21,-1.35,-1.25,0,*76
1507449682.0,8527,11.38,72960.5,0.19,-1.99,-1.79,0,*73
1507449683.2,8528,11.38,72964.5,0.21,-1.75,-1.63,0,*7E
1507449684.4,8529,11.38,72964.8,0.21,-1.79,-1.63,0,*73
1507449685.61,8530,11.38,72964.0,0.23,-1.87,-1.75,0,*7F
1507449686.87,8531,11.38,72964.8,0.21,-2.03,-1.91,0,*79
1507449688.12,8532,11.38,72962.5,0.21,-2.03,-1.99,0,*72
1507449689.35,8533,11.38,72960.3,0.21,-2.19,-2.11,0,*7B
1507449690.55,8534,11.38,72962.0,0.21,-2.27,-2.15,0,*75
1507449691.79,8535,11.38,72960.3,0.19,-2.11,-1.99,0,*7D
1507449693.02,8536,11.38,72962.3,0.21,-2.03,-1.75,0,*74
1507449694.25,8537,11.38,72964.8,0.19,-2.03,-1.87,0,*73
1507449695.49,8538,11.38,72962.5,0.19,-1.99,-1.91,0,*7B
1507449696.75,8539,11.38,72962.3,0.21,-1.99,-1.87,0,*76
1507449697.92,8540,11.38,72966.0,0.19,-2.27,-2.15,0,*7D
1507449699.12,8541,11.38,72964.5,0.21,-2.27,-2.15,0,*77
1507449700.35,8542,11.38,72964.0,0.21,-2.19,-2.11,0,*7D
1507449701.59,8543,11.38,72960.8,0.19,-2.11,-1.99,0,*7C
1507449702.84,8544,11.38,72956.3,0.21,-2.03,-1.91,0,*7B
1507449704.05,8545,11.38,72958.3,0.21,-1.79,-1.63,0,*79
1507449705.3,8546,11.38,72960.8,0.21,-1.99,-1.87,0,*7E
1507449706.53,8547,11.38,72962.3,0.21,-1.91,-1.75,0,*7A
1507449707.74,8548,11.38,72956.8,0.21,-1.79,-1.67,0,*70
1507449708.95,8549,11.38,72952.8,0.23,-1.71,-1.47,0,*79
1507449710.15,8550,11.38,72960.0,0.23,-1.87,-1.63,0,*7E
1507449711.39,8551,11.38,72954.3,0.23,-2.07,-1.87,0,*7E
1507449712.6,8552,11.38,72956.0,0.27,-1.99,-1.71,0,*74
1507449713.84,8553,11.38,72954.5,0.23,-1.99,-1.83,0,*7C
1507449715.04,8554,11.38,72956.5,0.23,-1.95,-1.75,0,*7E
1507449716.24,8555,11.38,72956.3,0.23,-1.95,-1.75,0,*7F
1507449717.45,8556,11.38,72952.0,0.23,-1.87,-1.71,0,*7B
1507449718.66,8557,11.38,72952.0,0.23,-1.83,-1.63,0,*7D
1507449719.89,8558,11.38,72948.3,0.27,-1.95,-1.83,0,*7F
1507449721.12,8559,11.38,72950.8,0.27,-1.95,-1.83,0,*7E
1507449722.32,8560,11.38,72948.0,0.23,-1.95,-1.71,0,*7D
1507449723.56,8561,11.38,72946.3,0.23,-1.99,-1.83,0,*7D
1507449724.79,8562,11.38,72946.0,0.27,-1.95,-1.91,0,*75
1507449725.97,8563,11.38,72942.3,0.27,-1.79,-1.67,0,*7F
1507449727.2,8564,11.38,72934.8,0.27,-2.03,-1.83,0,*7C
1507449728.4,8565,11.38,72948.8,0.27,-2.19,-1.95,0,*71
1507449729.63,8566,11.38,72954.5,0.27,-2.03,-1.91,0,*7D
1507449730.83,8567,11.38,72950.5,0.27,-1.91,-1.79,0,*72
1507449732.04,8568,11.38,72950.8,0.27,-1.95,-1.71,0,*71
1507449733.25,8569,11.38,72946.3,0.27,-1.91,-1.71,0,*74
1507449734.45,8570,11.38,72934.8,0.27,-1.91,-1.71,0,*7C
1507449735.66,8571,11.38,72934.5,0.27,-1.83,-1.59,0,*74
1507449736.87,8572,11.38,72930.3,0.23,-1.83,-1.63,0,*7A
1507449738.07,8573,11.38,72924.3,0.27,-1.83,-1.59,0,*76
1507449739.27,8574,11.38,72916.3,0.29,-2.35,-2.23,0,*7F
1507449740.5,8575,11.38,72914.8,0.29,-2.19,-2.07,0,*76
1507449741.73,8576,11.38,72924.0,0.29,-2.23,-2.11,0,*7B
1507449742.93,8577,11.38,72934.5,0.29,-2.43,-2.19,0,*74
1507449744.15,8578,11.38,72946.8,0.29,-2.19,-2.03,0,*7F
1507449745.41,8579,11.38,72940.5,0.29,-1.95,-1.83,0,*72
1507449746.61,8580,11.38,72938.0,0.31,-1.91,-1.79,0,*7C
1507449747.81,8581,11.38,72942.0,0.29,-2.95,-2.83,0,*75
1507449749.07,8582,11.38,72946.3,0.29,-2.11,-1.95,0,*7E
1507449750.27,8583,11.38,72952.8,0.27,-2.23,-2.07,0,*78
1507449751.5,8584,11.38,72954.0,0.27,-2.03,-1.91,0,*71
1507449752.73,8585,11.38,72952.8,0.27,-2.07,-1.91,0,*74
1507449753.97,8586,11.38,72958.8,0.27,-2.03,-1.91,0,*73
1507449755.19,8587,11.38,72958.5,0.29,-1.67,-1.35,0,*73
1507449756.42,8588,11.38,72958.5,0.29,-1.83,-1.79,0,*7E
1507449757.63,8589,11.38,72958.0,0.31,-1.87,-1.63,0,*79
1507449758.86,8590,11.38,72956.0,0.29,-1.67,-1.47,0,*70
1507449760.09,8591,11.38,72956.8,0.31,-2.03,-1.91,0,*72
1507449761.31,8592,11.44,72962.3,0.29,-2.35,-2.07,0,*71
1507449762.56,8593,11.38,72954.3,0.29,-2.07,-1.95,0,*79
1507449763.79,8594,11.38,72952.3,0.31,-2.03,-1.91,0,*77
1507449765.02,8595,11.38,72950.5,0.29,-2.47,-2.43,0,*73
1507449766.22,8596,11.38,72948.5,0.29,-2.35,-2.19,0,*7A
1507449767.42,8597,11.38,72954.8,0.29,-2.43,-2.19,0,*7A
1507449768.65,8598,11.38,72954.0,0.29,-2.55,-2.35,0,*7C
1507449769.88,8599,11.38,72956.0,0.29,-2.55,-2.43,0,*7C
1507449771.1,8600,11.38,72960.8,0.29,-2.59,-2.43,0,*73
1507449772.3,8601,11.38,72960.5,0.29,-2.35,-2.23,0,*7E
1507449773.53,8602,11.38,72960.0,0.29,-2.55,-2.35,0,*7C
1507449774.71,8603,11.38,72960.8,0.27,-2.35,-2.19,0,*7B
1507449775.89,8604,11.38,72960.5,0.27,-2.43,-2.23,0,*74
1507449777.09,8605,11.44,72960.5,0.23,-2.15,-2.07,0,*74
1507449778.27,8606,11.38,72960.3,0.27,-2.43,-2.19,0,*7F
1507449779.45,8607,11.38,72956.0,0.27,-2.43,-2.23,0,*77
1507449780.65,8608,11.44,72950.0,0.23,-2.23,-2.11,0,*7B
1507449781.86,8609,11.44,72948.5,0.27,-1.91,-1.79,0,*79
1507449783.09,8610,11.44,72958.0,0.27,-2.03,-1.91,0,*7F
1507449784.29,8611,11.38,72952.5,0.27,-2.23,-2.11,0,*77
1507449785.5,8612,11.38,72954.8,0.27,-2.23,-2.07,0,*73
1507449786.73,8613,11.38,72950.5,0.29,-2.55,-2.35,0,*7C
1507449787.96,8614,11.38,72958.5,0.27,-2.59,-2.47,0,*7C
1507449789.16,8615,11.38,72956.5,0.27,-2.47,-2.35,0,*77
1507449790.37,8616,11.38,72960.5,0.23,-2.35,-2.11,0,*73
1507449791.55,8617,11.38,72966.0,0.27,-2.23,-2.15,0,*75
1507449792.75,8618,11.38,72964.0,0.27,-2.31,-2.11,0,*7D
1507449793.98,8619,11.44,72962.5,0.27,-1.95,-1.83,0,*79
1507449795.19,8620,11.38,72956.5,0.27,-1.91,-1.71,0,*7A
1507449796.39,8621,11.38,72952.3,0.27,-1.91,-1.67,0,*7C
1507449797.62,8622,11.38,72948.3,0.27,-2.03,-1.91,0,*7E
1507449798.81,8623,11.44,72952.0,0.27,-1.71,-1.55,0,*71
1507449800.07,8624,11.38,72950.0,0.29,-2.11,-2.03,0,*7D
1507449801.3,8625,11.38,72950.8,0.27,-2.03,-1.91,0,*79
1507449802.55,8626,11.44,72952.3,0.29,-2.07,-1.95,0,*74
1507449803.72,8627,11.38,72948.0,0.27,-2.91,-2.83,0,*70
1507449804.92,8628,11.38,72944.8,0.27,-2.67,-2.43,0,*7A
1507449806.15,8629,11.38,72948.5,0.27,-2.03,-1.83,0,*76
1507449807.38,8630,11.44,72958.0,0.27,-2.03,-1.83,0,*7E
1507449808.59,8631,11.38,72956.0,0.27,-1.91,-1.71,0,*7A
1507449809.82,8632,11.38,72952.8,0.29,-2.03,-1.79,0,*77
1507449811.05,8633,11.44,72962.8,0.29,-1.91,-1.79,0,*7E
1507449812.28,8634,11.38,72956.0,0.31,-1.99,-1.91,0,*7E
1507449813.51,8635,11.38,72958.3,0.31,-2.03,-1.87,0,*78
1507449814.77,8636,11.38,72956.5,0.29,-2.03,-1.91,0,*75
1507449815.98,8637,11.38,72954.8,0.31,-1.99,-1.67,0,*74
1507449817.2,8638,11.38,72954.5,0.29,-1.95,-1.79,0,*71
1507449818.4,8639,11.44,72950.0,0.31,-2.19,-1.91,0,*78
1507449819.61,8640,11.38,72946.8,0.29,-2.35,-2.23,0,*7B
1507449820.81,8641,11.38,72946.0,0.31,-2.15,-2.03,0,*73
1507449822.01,8642,11.44,72952.5,0.31,-1.91,-1.79,0,*71
1507449823.18,8643,11.44,72952.3,0.31,-1.75,-1.51,0,*70
1507449824.36,8644,11.38,72950.5,0.31,-1.79,-1.55,0,*7F
1507449825.56,8645,11.38,72952.8,0.31,-1.63,-1.39,0,*7F
1507449826.78,8646,11.38,72962.5,0.33,-1.91,-1.75,0,*7B
1507449828.01,8647,11.44,72964.8,0.33,-1.87,-1.75,0,*7D
1507449829.21,8648,11.38,72962.3,0.33,-2.27,-2.15,0,*7E
1507449830.41,8649,11.38,72960.0,0.35,-1.87,-1.63,0,*72
1507449831.61,8650,11.38,72964.5,0.35,-1.59,-1.35,0,*7A
1507449832.87,8651,11.38,72968.5,0.33,-2.03,-2.03,0,*77
1507449834.12,8652,11.38,72962.8,0.33,-1.99,-1.91,0,*7C
1507449835.35,8653,11.38,72964.3,0.33,-1.91,-1.79,0,*73
1507449836.55,8654,11.38,72960.8,0.35,-2.23,-2.11,0,*75
1507449837.74,8655,11.38,72962.3,0.33,-2.43,-2.27,0,*71
1507449839.0,8656,11.38,72958.3,0.33,-2.63,-2.51,0,*71
1507449840.2,8657,11.38,72956.8,0.33,-2.43,-2.31,0,*74
1507449841.41,8658,11.38,72954.8,0.35,-2.51,-2.35,0,*7A
1507449842.66,8659,11.38,72958.3,0.33,-2.75,-2.51,0,*79
1507449843.87,8660,11.38,72962.0,0.35,-2.63,-2.35,0,*70
1507449845.1,8661,11.38,72960.5,0.35,-2.47,-2.11,0,*71
1507449846.3,8662,11.38,72962.0,0.35,-2.39,-2.11,0,*7B
1507449847.51,8663,11.44,72960.3,0.35,-2.15,-1.91,0,*7F
1507449848.73,8664,11.44,72956.3,0.33,-1.91,-1.67,0,*78
1507449849.94,8665,11.38,72950.3,0.35,-1.87,-1.59,0,*75
1507449851.14,8666,11.38,72950.3,0.35,-1.95,-1.75,0,*7B
1507449852.34,8667,11.38,72946.5,0.35,-1.95,-1.75,0,*7A
1507449853.55,8668,11.38,72952.5,0.35,-2.03,-1.75,0,*79
1507449854.75,8669,11.38,72954.0,0.35,-2.39,-2.03,0,*73
1507449855.98,8670,11.38,72946.8,0.35,-2.11,-1.95,0,*7D
1507449857.18,8671,11.38,72948.3,0.35,-1.95,-1.71,0,*79
1507449858.39,8672,11.44,72954.5,0.35,-1.99,-1.75,0,*72
1507449859.59,8673,11.38,72942.5,0.35,-1.95,-1.63,0,*78
1507449860.8,8674,11.38,72944.5,0.35,-1.75,-1.47,0,*77
1507449862.02,8675,11.38,72944.8,0.37,-1.63,-1.35,0,*76
1507449863.25,8676,11.44,72950.8,0.37,-1.63,-1.35,0,*75
1507449864.42,8677,11.38,72954.5,0.39,-1.79,-1.59,0,*7B
1507449865.62,8678,11.38,72958.3,0.39,-1.83,-1.55,0,*7D
1507449866.85,8679,11.38,72956.3,0.39,-2.07,-1.83,0,*78
1507449868.08,8680,11.38,72960.5,0.39,-2.07,-1.83,0,*7E
1507449869.25,8681,11.38,72962.3,0.39,-2.31,-2.19,0,*7A
1507449870.48,8682,11.38,72962.5,0.39,-2.67,-2.55,0,*72
1507449871.68,8683,11.44,72962.3,0.39,-2.67,-2.43,0,*74
1507449872.87,8684,11.38,72962.5,0.37,-2.39,-2.23,0,*70
1507449874.1,8685,11.38,72950.8,0.37,-2.59,-2.23,0,*77
1507449875.33,8686,11.38,72936.8,0.39,-2.07,-1.83,0,*78
1507449876.53,8687,11.44,72928.8,0.39,-1.99,-1.79,0,*78
1507449877.76,8688,11.38,72932.5,0.39,-2.11,-1.95,0,*76
1507449878.93,8689,11.38,72942.5,0.39,-2.43,-2.19,0,*77
1507449880.19,8690,11.44,72958.8,0.37,-2.71,-2.51,0,*7C
1507449881.39,8691,11.38,72956.5,0.39,-2.55,-2.43,0,*76
1507449882.59,8692,11.44,72960.3,0.39,-2.23,-1.99,0,*70
1507449883.81,8693,11.44,72958.3,0.39,-1.95,-1.83,0,*74
1507449885.02,8694,11.44,72956.0,0.39,-1.99,-1.79,0,*7A
1507449886.23,8695,11.44,72946.8,0.39,-1.99,-1.79,0,*7B
1507449887.45,8696,11.44,72948.8,0.41,-1.67,-1.39,0,*72
1507449888.65,8697,11.38,72944.0,0.41,-1.55,-1.21,0,*7B
1507449889.82,8698,11.38,72944.3,0.43,-1.51,-1.29,0,*7A
1507449891.01,8699,11.38,72942.8,0.43,-1.67,-1.43,0,*72
1507449892.21,8700,11.38,72946.8,0.43,-1.55,-1.39,0,*7F
1507449893.41,8701,11.44,72954.5,0.43,-1.75,-1.43,0,*71
1507449894.59,8702,11.38,72952.3,0.45,-1.71,-1.59,0,*7B
1507449895.8,8703,11.44,72958.3,0.45,-1.71,-1.47,0,*75
1507449897.02,8704,11.38,72948.8,0.47,-1.91,-1.75,0,*7F
1507449898.22,8705,11.38,72954.5,0.45,-2.27,-2.11,0,*73
1507449899.45,8706,11.44,72958.3,0.47,-2.39,-2.11,0,*7D
1507449900.62,8707,11.38,72944.0,0.45,-2.27,-2.15,0,*75
1507449901.85,8708,11.38,72944.8,0.45,-2.71,-2.59,0,*71
1507449903.01,8709,11.38,72940.5,0.43,-2.83,-2.79,0,*79
1507449904.21,8710,11.44,72944.5,0.43,-2.91,-2.75,0,*7E
1507449905.4,8711,11.38,72940.5,0.43,-2.51,-2.27,0,*74
1507449906.61,8712,11.44,72944.3,0.43,-2.51,-2.31,0,*70
1507449907.8,8713,11.44,72940.8,0.41,-2.39,-2.19,0,*77
1507449909.05,8714,11.44,72948.3,0.41,-2.63,-2.51,0,*73
1507449910.31,8715,11.38,72950.5,0.41,-2.75,-2.51,0,*75
1507449911.47,8716,11.38,72950.3,0.43,-2.39,-2.19,0,*70
1507449912.67,8717,11.44,72954.0,0.43,-2.27,-2.07,0,*71
1507449913.89,8718,11.44,72958.3,0.41,-2.19,-1.95,0,*79
1507449915.1,8719,11.44,72952.5,0.41,-2.19,-1.95,0,*78
1507449916.35,8720,11.38,72948.5,0.41,-2.03,-1.87,0,*7A
1507449917.57,8721,11.38,72946.5,0.43,-2.03,-1.87,0,*79
1507449918.77,8722,11.44,72950.3,0.43,-1.91,-1.67,0,*7C
1507449919.97,8723,11.38,72950.5,0.43,-1.87,-1.63,0,*7E
1507449921.2,8724,11.44,72950.0,0.45,-1.99,-1.87,0,*7A
1507449922.41,8725,11.44,72950.3,0.45,-1.91,-1.75,0,*7E
1507449923.6,8726,11.38,72950.8,0.47,-2.39,-2.35,0,*79
1507449924.84,8727,11.44,72956.3,0.45,-2.11,-1.87,0,*7A
1507449926.04,8728,11.44,72958.5,0.45,-1.87,-1.71,0,*70
1507449927.25,8729,11.44,72960.8,0.45,-1.83,-1.63,0,*76
1507449928.46,8730,11.44,72960.3,0.45,-1.87,-1.71,0,*79
1507449929.69,8731,11.44,72960.0,0.45,-2.11,-1.87,0,*7D
1507449930.92,8732,11.44,72962.0,0.45,-2.03,-1.87,0,*7D
1507449932.18,8733,11.44,72956.3,0.47,-2.11,-1.83,0,*79
1507449933.38,8734,11.44,72958.0,0.45,-1.99,-1.75,0,*76
1507449934.58,8735,11.38,72952.0,0.47,-2.39,-2.15,0,*79
1507449935.78,8736,11.38,72952.5,0.47,-2.39,-2.23,0,*7F
1507449936.98,8737,11.44,72958.8,0.45,-2.51,-2.35,0,*75
1507449938.18,8738,11.44,72956.0,0.45,-2.51,-2.27,0,*79
1507449939.36,8739,11.44,72956.0,0.45,-2.39,-2.23,0,*72
1507449940.56,8740,11.38,72958.5,0.45,-2.47,-2.27,0,*71
1507449941.76,8741,11.44,72958.5,0.45,-2.47,-2.27,0,*70
1507449942.99,8742,11.44,72956.0,0.45,-2.03,-1.83,0,*7E
1507449944.23,8743,11.38,72956.5,0.45,-2.11,-1.83,0,*7C
1507449945.45,8744,11.44,72958.5,0.47,-1.87,-1.59,0,*72
1507449946.68,8745,11.44,72948.5,0.45,-1.83,-1.47,0,*7A
1507449947.92,8746,11.38,72950.0,0.47,-1.71,-1.35,0,*73
1507449949.15,8747,11.44,72954.3,0.47,-1.83,-1.71,0,*7F
1507449950.4,8748,11.44,72956.5,0.47,-2.71,-2.47,0,*78
1507449951.61,8749,11.44,72950.0,0.45,-2.47,-2.27,0,*78
1507449952.81,8750,11.44,72946.8,0.45,-2.23,-1.91,0,*7C
1507449954.04,8751,11.44,72950.0,0.47,-1.83,-1.51,0,*7A
1507449955.21,8752,11.38,72946.5,0.45,-1.75,-1.51,0,*72
1507449956.44,8753,11.44,72948.0,0.47,-2.15,-1.99,0,*70
1507449957.67,8754,11.44,72954.0,0.45,-2.11,-1.83,0,*7A
1507449958.92,8755,11.44,72950.0,0.47,-1.91,-1.83,0,*72
1507449960.15,8756,11.38,72950.8,0.47,-2.23,-1.99,0,*70
1507449961.35,8757,11.44,72956.0,0.45,-2.27,-2.03,0,*77
1507449962.58,8758,11.44,72956.0,0.47,-1.83,-1.63,0,*72
1507449963.78,8759,11.44,72956.5,0.47,-1.75,-1.51,0,*7B
1507449965.01,8760,11.44,72954.8,0.51,-1.43,-1.21,0,*74
1507449966.2,8761,11.44,72956.8,0.51,-1.59,-1.33,0,*7D
1507449967.43,8762,11.44,72958.0,0.51,-1.67,-1.47,0,*70
1507449968.66,8763,11.44,72960.8,0.51,-1.83,-1.67,0,*79
1507449969.83,8764,11.44,72960.5,0.53,-1.55,-1.33,0,*76
1507449971.02,8765,11.44,72960.0,0.53,-1.95,-1.79,0,*75
1507449972.19,8766,11.44,72962.8,0.53,-1.79,-1.59,0,*76
1507449973.36,8767,11.44,72960.8,0.53,-1.79,-1.71,0,*7D
1507449974.59,8768,11.44,72960.8,0.53,-2.11,-1.99,0,*79
1507449975.79,8769,11.44,72958.8,0.53,-2.23,-1.99,0,*79
1507449977.01,8770,11.44,72956.5,0.53,-2.11,-1.95,0,*7C
1507449978.24,8771,11.44,72952.3,0.53,-2.11,-1.87,0,*7E
1507449979.43,8772,11.44,72958.8,0.53,-2.55,-2.43,0,*76
1507449980.66,8773,11.44,72962.5,0.53,-2.07,-1.87,0,*7B
1507449981.87,8774,11.44,72958.3,0.51,-2.23,-1.95,0,*7B
1507449983.07,8775,11.44,72956.5,0.51,-2.43,-2.23,0,*72
1507449984.3,8776,11.44,72952.8,0.51,-2.47,-2.43,0,*73
1507449985.55,8777,11.44,72948.8,0.51,-2.67,-2.47,0,*74
1507449986.8,8778,11.44,72950.8,0.51,-2.67,-2.47,0,*7B
1507449988.06,8779,11.44,72950.0,0.51,-2.75,-2.47,0,*79
1507449989.29,8780,11.44,72948.0,0.47,-2.47,-2.27,0,*7F
1507449990.51,8781,11.44,72946.0,0.47,-2.51,-2.35,0,*7A
1507449991.73,8782,11.44,72942.3,0.51,-2.19,-1.95,0,*7B
1507449992.99,8783,11.44,72942.5,0.51,-2.75,-2.47,0,*7C
1507449994.16,8784,11.44,72936.8,0.45,-3.03,-2.87,0,*72
1507449995.42,8785,11.44,72940.3,0.47,-2.71,-2.47,0,*79
1507449996.65,8786,11.44,72938.3,0.47,-2.23,-1.99,0,*7D
1507449997.87,8787,11.44,72942.3,0.47,-1.83,-1.63,0,*70
1507449999.1,8788,11.44,72944.8,0.47,-1.91,-1.71,0,*7F
1507450000.33,8789,11.44,72948.3,0.47,-1.91,-1.71,0,*7E
1507450001.59,8790,11.44,72950.0,0.47,-2.11,-1.91,0,*73
1507450002.82,8791,11.44,72952.8,0.51,-2.35,-2.07,0,*7F
1507450004.07,8792,11.44,72946.0,0.51,-2.07,-1.87,0,*76
1507450005.27,8793,11.44,72944.8,0.47,-3.15,-2.91,0,*76
1507450006.46,8794,11.44,72944.0,0.47,-3.23,-3.23,0,*7C
1507450007.66,8795,11.44,72938.8,0.47,-2.99,-2.79,0,*73
1507450008.86,8796,11.44,72940.8,0.45,-2.23,-1.99,0,*7E
1507450010.07,8797,11.44,72942.0,0.45,-2.23,-1.99,0,*7F
1507450011.27,8798,11.44,72944.3,0.45,-2.23,-1.99,0,*70
1507450012.5,8799,11.44,72948.8,0.47,-2.47,-2.35,0,*74
1507450013.68,8800,11.44,72952.5,0.45,-2.35,-2.23,0,*7B
1507450014.91,8801,11.44,72952.8,0.47,-2.51,-2.39,0,*71
1507450016.14,8802,11.44,72950.0,0.45,-2.03,-1.83,0,*75
1507450017.37,8803,11.44,72952.5,0.47,-1.83,-1.75,0,*74
1507450018.63,8804,11.44,72952.0,0.47,-2.03,-1.99,0,*7A
1507450019.85,8805,11.44,72956.5,0.47,-2.23,-2.03,0,*79
1507450021.11,8806,11.44,72952.0,0.47,-2.47,-2.11,0,*7B
1507450022.33,8807,11.44,72952.8,0.51,-2.83,-2.59,0,*79
1507450023.56,8808,11.44,72938.3,0.45,-2.75,-2.47,0,*75
1507450024.79,8809,11.44,72930.0,0.47,-2.51,-2.23,0,*72
1507450026.02,8810,11.44,72930.0,0.45,-2.71,-2.51,0,*7F
1507450027.22,8811,11.44,72926.5,0.45,-2.59,-2.27,0,*75
1507450028.44,8812,11.44,72926.0,0.47,-2.23,-1.91,0,*77
1507450029.67,8813,11.44,72924.5,0.47,-1.87,-1.63,0,*76
1507450030.9,8814,11.44,72928.3,0.47,-1.83,-1.51,0,*74
1507450032.13,8815,11.44,72932.5,0.47,-2.15,-1.87,0,*72
1507450033.32,8816,11.44,72932.3,0.51,-2.39,-2.27,0,*71
1507450034.55,8817,11.44,72936.0,0.51,-2.23,-1.99,0,*7D
1507450035.78,8818,11.44,72938.5,0.51,-1.87,-1.79,0,*71
1507450036.97,8819,11.44,72936.5,0.53,-2.23,-1.99,0,*71
1507450038.23,8820,11.44,72942.3,0.47,-2.11,-1.87,0,*70
1507450039.45,8821,11.44,72944.8,0.47,-2.15,-1.91,0,*72
1507450040.66,8822,11.44,72946.3,0.51,-2.43,-2.23,0,*7F
1507450041.86,8823,11.44,72948.3,0.47,-2.35,-2.15,0,*7D
1507450043.11,8824,11.44,72954.5,0.47,-2.51,-2.51,0,*78
1507450044.34,8825,11.44,72962.0,0.51,-2.47,-2.43,0,*7A
1507450045.59,8826,11.44,72966.5,0.47,-2.75,-2.59,0,*74
1507450046.81,8827,11.44,72952.3,0.47,-2.59,-2.39,0,*7D
1507450048.01,8828,11.44,72940.8,0.45,-2.59,-2.39,0,*70
1507450049.22,8829,11.44,72936.3,0.45,-2.91,-2.75,0,*7D
1507450050.45,8830,11.44,72950.3,0.45,-2.71,-2.51,0,*7D
1507450051.67,8831,11.44,72950.5,0.47,-2.91,-2.75,0,*76
1507450052.85,8832,11.44,72950.8,0.45,-2.99,-2.87,0,*72
1507450054.06,8833,11.44,72950.5,0.45,-2.79,-2.63,0,*77
1507450055.28,8834,11.44,72946.5,0.43,-2.75,-2.63,0,*7A
1507450056.5,8835,11.44,72932.8,0.41,-2.83,-2.67,0,*74
1507450057.69,8836,11.44,72936.5,0.41,-2.83,-2.79,0,*78
1507450058.86,8837,11.44,72940.0,0.43,-3.19,-3.15,0,*72
1507450060.06,8838,11.44,72940.0,0.41,-3.31,-3.39,0,*7B
1507450061.28,8839,11.44,72932.0,0.41,-3.31,-3.51,0,*74
1507450062.49,8840,11.44,72932.8,0.39,-3.55,-3.63,0,*76
1507450063.68,8841,11.44,72930.5,0.39,-3.75,-3.83,0,*7B
1507450064.91,8842,11.44,72926.8,0.37,-4.01,-3.87,0,*76
1507450066.14,8843,11.44,72930.5,0.37,-4.01,-3.91,0,*70
1507450067.34,8844,11.44,72924.5,0.37,-4.13,-4.13,0,*79
1507450068.56,8845,11.44,72924.3,0.37,-4.13,-4.01,0,*7B
1507450069.79,8846,11.44,72936.3,0.37,-4.01,-3.87,0,*72
1507450070.98,8847,11.44,72936.3,0.35,-3.79,-3.75,0,*74
1507450072.21,8848,11.44,72918.5,0.33,-3.79,-3.63,0,*7A
1507450073.43,8849,11.44,72928.0,0.33,-3.83,-3.67,0,*7A
1507450074.66,8850,11.44,72928.0,0.33,-3.83,-3.51,0,*77
1507450075.88,8851,11.44,72932.0,0.33,-3.55,-3.39,0,*73
1507450077.06,8852,11.44,72936.0,0.31,-3.39,-3.15,0,*76
1507450078.24,8853,11.44,72938.3,0.31,-3.31,-3.27,0,*7E
1507450079.42,8854,11.44,72932.8,0.31,-3.27,-3.07,0,*7C
1507450080.62,8855,11.44,72932.5,0.29,-3.19,-3.07,0,*79
1507450081.82,8856,11.44,72928.3,0.29,-3.35,-3.19,0,*7B
1507450083.0,8857,11.44,72940.3,0.31,-3.15,-2.95,0,*74
1507450084.18,8858,11.44,72934.5,0.31,-3.27,-3.19,0,*7F
1507450085.41,8859,11.44,72934.0,0.29,-3.75,-3.59,0,*74
1507450086.62,8860,11.44,72926.0,0.29,-3.07,-2.95,0,*7A
1507450087.86,8861,11.44,72930.0,0.29,-2.95,-2.71,0,*7B
1507450089.09,8862,11.44,72930.5,0.27,-2.71,-2.59,0,*76
1507450090.26,8863,11.44,72926.0,0.27,-2.91,-2.83,0,*7E
1507450091.49,8864,11.44,72930.5,0.27,-2.71,-2.59,0,*70
1507450092.67,8865,11.44,72930.0,0.27,-3.19,-3.07,0,*74
1507450093.85,8866,11.44,72920.8,0.27,-2.99,-2.95,0,*74
1507450095.05,8867,11.44,72922.8,0.29,-2.91,-2.79,0,*71
1507450096.23,8868,11.44,72930.5,0.27,-2.99,-2.99,0,*76
1507450097.43,8869,11.44,72930.0,0.27,-3.35,-3.43,0,*76
1507450098.61,8870,11.44,72944.8,0.27,-3.07,-2.79,0,*77
1507450099.79,8871,11.44,72938.5,0.27,-3.11,-2.99,0,*7F
1507450100.99,8872,11.44,72934.8,0.27,-2.83,-2.71,0,*70
1507450102.17,8873,11.44,72930.5,0.23,-3.15,-3.11,0,*7C
1507450103.35,8874,11.44,72924.0,0.23,-3.35,-3.23,0,*78
1507450104.53,8875,11.44,72926.5,0.27,-3.31,-3.23,0,*79
1507450105.75,8876,11.44,72926.8,0.23,-3.51,-3.51,0,*7D
1507450106.98,8877,11.44,72922.5,0.21,-3.43,-3.39,0,*73
1507450108.22,8878,11.44,72928.5,0.21,-3.55,-3.55,0,*71
1507450109.4,8879,11.44,72938.0,0.19,-3.15,-3.03,0,*7C
1507450110.61,8880,11.44,72944.8,0.21,-2.99,-2.87,0,*79
1507450111.78,8881,11.44,72954.5,0.19,-2.87,-2.79,0,*7D
1507450112.96,8882,11.44,72954.0,0.19,-3.27,-3.19,0,*72
1507450114.17,8883,11.44,72952.5,0.19,-2.79,-2.55,0,*70
1507450115.37,8884,11.44,72954.8,0.21,-2.43,-2.31,0,*77
1507450116.63,8885,11.44,72954.3,0.21,-2.75,-2.55,0,*71
1507450117.8,8886,11.44,72948.3,0.19,-3.19,-3.15,0,*77
1507450119.03,8887,11.44,72950.8,0.21,-2.79,-2.63,0,*7A